Cotulla, TX

10:24 AM CST on December 12, 2019 (GMT -0600)
Cotulla-La Salle County

Weather History for KCOT - November, 2019

Change the Weather History Date:

Thursday, November 21, 2019

  Actual Average Record
Temperature  
Mean Temperature 75 °F -  
Max Temperature 82 °F 70 °F 90 °F (2011)
Min Temperature 68 °F 50 °F 37 °F (2005)
Cooling Degree Days 10    
Growing Degree Days 25 (Base 50)    
Moisture  
Dew Point 65 °F    
Average Humidity 74    
Maximum Humidity 100    
Minimum Humidity 51    
Precipitation  
Precipitation 0.00 in - - ()
Sea Level Pressure  
Sea Level Pressure 29.86 in    
Wind  
Wind Speed 10 mph ()    
Max Wind Speed 17 mph    
Max Gust Speed 23 mph    
Visibility 10.0 miles    
Events      
Averages and records for this station are not official NWS values.
T = Trace of Precipitation, MM = Missing Value Source: Averaged Metar Reports

Daily Weather History Graph

Daily Weather History Graph

Search for Another Location

Airport or City:

Astronomy

Nov. 21, 2019 Rise Set
Actual Time 7:03 AM CST 5:41 PM CST
Civil Twilight 6:38 AM CST 6:06 PM CST
Nautical Twilight 6:09 AM CST 6:35 PM CST
Astronomical Twilight 5:41 AM CST 7:03 PM CST
Moon 1:38 AM CST (11/21) 2:38 PM CST (11/21)
Length of Visible Light 11h 27m
Length of Day
10h 37m
Waning Crescent, 29% of the Moon is Illuminated
Nov 21
Waning Crescent
Nov 26
New
Dec 4
First Quarter
Dec 11
Full
Dec 18
Last Quarter

Hourly Weather History & Observations

Time (CST) Temp. Heat Index Dew Point Humidity Pressure Visibility Wind Dir Wind Speed Gust Speed Precip Events Conditions
12:53 AM 70.0 °F - 66.0 °F 87% 29.86 in 10.0 mi SE 17.3 mph - 0.00 in   Clear
1:53 AM 71.1 °F - 64.9 °F 81% 29.86 in 10.0 mi SSE 15.0 mph - N/A   Clear
2:53 AM 71.1 °F - 64.9 °F 81% 29.86 in 10.0 mi SSE 8.1 mph - N/A   Clear
3:53 AM 71.1 °F - 66.0 °F 84% 29.86 in 10.0 mi SSE 10.4 mph - N/A   Clear
4:53 AM 70.0 °F - 66.0 °F 87% 29.88 in 10.0 mi SSE 5.8 mph - N/A   Clear
5:53 AM 69.1 °F - 66.9 °F 93% 29.88 in 10.0 mi SE 8.1 mph - N/A   Clear
6:53 AM 68.0 °F - 68.0 °F 100% 29.91 in 10.0 mi ESE 5.8 mph - N/A   Clear
7:53 AM 69.1 °F - 68.0 °F 96% 29.91 in 10.0 mi SE 8.1 mph - N/A   Clear
8:53 AM 73.0 °F - 66.9 °F 81% 29.91 in 10.0 mi SE 13.8 mph - N/A   Clear
9:53 AM 73.9 °F - 66.0 °F 76% 29.92 in 10.0 mi SSE 12.7 mph 23.0 mph N/A   Mostly Cloudy
10:53 AM 75.9 °F - 64.9 °F 69% 29.90 in 10.0 mi SSE 12.7 mph 21.9 mph N/A   Mostly Cloudy
12:53 PM 80.1 °F 81.7 °F 64.0 °F 58% 29.85 in 10.0 mi SSE 11.5 mph - N/A   Mostly Cloudy
1:53 PM 82.0 °F 83.4 °F 64.0 °F 54% 29.82 in 10.0 mi SSE 9.2 mph - N/A   Scattered Clouds
2:53 PM 82.0 °F 83.4 °F 64.0 °F 54% 29.80 in 10.0 mi SE 12.7 mph - N/A   Clear
3:53 PM 82.9 °F 84.0 °F 63.0 °F 51% 29.79 in 10.0 mi SSE 12.7 mph - N/A   Clear
4:53 PM 82.0 °F 83.1 °F 63.0 °F 52% 29.80 in 10.0 mi SSE 10.4 mph - N/A   Clear
5:53 PM 80.1 °F 81.7 °F 64.0 °F 58% 29.81 in 10.0 mi SE 10.4 mph - N/A   Clear
6:53 PM 77.0 °F - 64.0 °F 64% 29.83 in 10.0 mi NE 4.6 mph - N/A   Clear
7:53 PM 75.9 °F - 64.0 °F 67% 29.85 in 10.0 mi ESE 6.9 mph - N/A   Clear
8:53 PM 75.0 °F - 64.0 °F 69% 29.88 in 10.0 mi SE 8.1 mph - N/A   Clear
9:53 PM 73.0 °F - 64.9 °F 76% 29.88 in 10.0 mi SE 8.1 mph - N/A   Clear
10:53 PM 70.0 °F - 66.0 °F 87% 29.88 in 10.0 mi SE 10.4 mph - N/A   Clear
11:53 PM 72.0 °F - 66.0 °F 81% 29.86 in 10.0 mi SSE 10.4 mph - N/A   Clear